Washington, NE

9:00 PM CST on February 11, 2016 (GMT -0600)
Blair Municipal

Weather History for KBTA - November, 2013

Change the Weather History Date:

Saturday, November 23, 2013

  Actual Average (KOMA) Record (KOMA)
Temperature  
Mean Temperature 18 °F 35 °F  
Max Temperature 25 °F 44 °F 64 °F (2006)
Min Temperature 10 °F 25 °F 1 °F (1898)
Degree Days  
Heating Degree Days 48 30  
Month to date heating degree days 559  
Since 1 July heating degree days 1044  
Cooling Degree Days 0 0  
Month to date cooling degree days 0  
Year to date cooling degree days 1112  
Moisture  
Dew Point 5 °F    
Average Humidity 62    
Maximum Humidity 78    
Minimum Humidity 46    
Precipitation  
Precipitation 0.00 in 0.05 in 1.95 in (1931)
Month to date precipitation 1.31  
Year to date precipitation 29.25  
Snow  
Snow 0.00 in 0.10 in - ()
Month to date snowfall 1.4  
Since 1 July snowfall 1.7  
Snow Depth -    
Sea Level Pressure  
Sea Level Pressure 30.76 in    
Wind  
Wind Speed 11 mph (North)    
Max Wind Speed 23 mph    
Max Gust Speed 26 mph    
Visibility 10 miles    
Events      
T = Trace of Precipitation, MM = Missing Value Source: NWS Daily Summary

Daily Weather History Graph

Daily Weather History Graph

Search for Another Location

Airport or City:

Trip Planner

Search our weather history database for the weather conditions in past years. The results will help you decide how hot, cold, wet, or windy it might be!

Date:

Astronomy

Nov. 23, 2013 Rise Set
Actual Time 7:22 AM CST 4:58 PM CST
Civil Twilight 6:52 AM CST 5:29 PM CST
Nautical Twilight 6:18 AM CST 6:03 PM CST
Astronomical Twilight 5:45 AM CST 6:36 PM CST
Moon 10:30 PM CST (11/23) 11:38 AM CST (11/23)
Length of Visible Light 10h 36m
Length of Day
9h 36m
Waning Gibbous, 69% of the Moon is Illuminated
Nov 23
Waning Gibbous
Nov 25
Last Quarter
Dec 2
New
Dec 9
First Quarter
Dec 17
Full

Hourly Weather History & Observations

Time (CST) Temp. Windchill Dew Point Humidity Pressure Visibility Wind Dir Wind Speed Gust Speed Precip Events Conditions
12:15 AM 25.3 °F 13.6 °F 13.8 °F 62% 30.61 in 10.0 mi North 13.8 mph 21.9 mph N/A   Clear
12:35 AM 23.9 °F 10.8 °F 13.8 °F 65% 30.62 in 10.0 mi North 16.1 mph 24.2 mph N/A   Clear
12:55 AM 22.1 °F 8.9 °F 13.8 °F 70% 30.63 in 10.0 mi North 15.0 mph 18.4 mph N/A   Clear
1:15 AM 22.1 °F 9.5 °F 13.1 °F 68% 30.64 in 10.0 mi North 13.8 mph 18.4 mph N/A   Clear
1:35 AM 21.6 °F 9.9 °F 12.6 °F 68% 30.64 in 10.0 mi North 11.5 mph - N/A   Clear
1:55 AM 20.8 °F 9.0 °F 12.9 °F 71% 30.66 in 10.0 mi North 11.5 mph - N/A   Clear
2:15 AM 20.7 °F 7.6 °F 13.1 °F 73% 30.66 in 10.0 mi North 13.8 mph 20.7 mph N/A   Clear
2:35 AM 20.7 °F 6.1 °F 13.3 °F 73% 30.66 in 10.0 mi North 17.3 mph - N/A   Clear
2:55 AM 19.9 °F 7.9 °F 13.6 °F 77% 30.67 in 10.0 mi North 11.5 mph - N/A   Clear
3:15 AM 19.4 °F 7.2 °F 13.6 °F 78% 30.68 in 10.0 mi North 11.5 mph - N/A   Clear
3:35 AM 19.4 °F 5.0 °F 13.3 °F 77% 30.68 in 10.0 mi North 16.1 mph 19.6 mph N/A   Clear
3:55 AM 18.9 °F 1.7 °F 12.9 °F 78% 30.69 in 10.0 mi North 23.0 mph 26.5 mph N/A   Clear
4:15 AM 17.8 °F 1.5 °F 11.3 °F 76% 30.70 in 10.0 mi North 19.6 mph 26.5 mph N/A   Clear
4:35 AM 17.2 °F 1.2 °F 9.9 °F 73% 30.71 in 10.0 mi North 18.4 mph 24.2 mph N/A   Clear
4:55 AM 16.7 °F 2.0 °F 4.8 °F 60% 30.73 in 10.0 mi NNW 15.0 mph 23.0 mph N/A   Clear
5:15 AM 15.4 °F 2.3 °F 4.6 °F 62% 30.75 in 10.0 mi North 11.5 mph - N/A   Clear
5:35 AM 14.5 °F -0.7 °F 3.2 °F 61% 30.75 in 10.0 mi North 15.0 mph 20.7 mph N/A   Clear
5:55 AM 13.8 °F 0.2 °F 2.8 °F 62% 30.76 in 10.0 mi North 11.5 mph 21.9 mph N/A   Clear
6:15 AM 13.1 °F -2.0 °F 2.7 °F 63% 30.76 in 10.0 mi North 13.8 mph 21.9 mph N/A   Clear
6:35 AM 12.7 °F 0.4 °F 2.8 °F 65% 30.77 in 10.0 mi NNW 9.2 mph - N/A   Clear
6:55 AM 12.2 °F -2.5 °F 3.7 °F 69% 30.78 in 10.0 mi NNW 12.7 mph 16.1 mph N/A   Clear
7:15 AM 11.8 °F -4.2 °F 2.8 °F 67% 30.78 in 10.0 mi North 15.0 mph - N/A   Clear
7:35 AM 11.7 °F -3.2 °F 3.4 °F 69% 30.79 in 10.0 mi NNW 12.7 mph - N/A   Clear
7:55 AM 11.3 °F -2.9 °F 3.9 °F 72% 30.80 in 10.0 mi NNW 11.5 mph - N/A   Clear
8:15 AM 11.7 °F -2.5 °F 3.2 °F 69% 30.82 in 10.0 mi North 11.5 mph 17.3 mph N/A   Clear
8:35 AM 12.2 °F -2.5 °F 3.0 °F 67% 30.82 in 10.0 mi North 12.7 mph - N/A   Clear
8:55 AM 12.6 °F 0.2 °F 3.4 °F 67% 30.82 in 10.0 mi North 9.2 mph - N/A   Clear
9:15 AM 13.1 °F 0.9 °F 3.2 °F 65% 30.83 in 10.0 mi North 9.2 mph - N/A   Clear
9:35 AM 13.8 °F -0.5 °F 4.1 °F 65% 30.84 in 10.0 mi North 12.7 mph - N/A   Clear
9:55 AM 14.7 °F 0.7 °F 4.5 °F 64% 30.84 in 10.0 mi NNW 12.7 mph - N/A   Clear
10:15 AM 15.4 °F 3.0 °F 4.3 °F 61% 30.85 in 10.0 mi North 10.4 mph - N/A   Clear
10:35 AM 16.0 °F 2.9 °F 5.4 °F 63% 30.85 in 10.0 mi NNW 11.5 mph - N/A   Clear
10:55 AM 16.5 °F 4.3 °F 5.4 °F 62% 30.84 in 10.0 mi NNW 10.4 mph - N/A   Clear
11:15 AM 16.9 °F 4.1 °F 5.4 °F 61% 30.84 in 10.0 mi NNW 11.5 mph 18.4 mph N/A   Clear
11:35 AM 17.6 °F 5.7 °F 4.3 °F 56% 30.83 in 10.0 mi North 10.4 mph - N/A   Clear
11:55 AM 18.1 °F 7.9 °F 5.0 °F 57% 30.82 in 10.0 mi North 8.1 mph - N/A   Clear
12:15 PM 18.3 °F 6.6 °F 4.3 °F 54% 30.81 in 10.0 mi North 10.4 mph - N/A   Clear
12:35 PM 18.7 °F 8.6 °F 4.1 °F 53% 30.82 in 10.0 mi North 8.1 mph - N/A   Clear
12:55 PM 19.0 °F 7.5 °F 4.5 °F 53% 30.82 in 10.0 mi NNW 10.4 mph - N/A   Clear
1:15 PM 19.4 °F 7.9 °F 3.4 °F 50% 30.81 in 10.0 mi NNW 10.4 mph 17.3 mph N/A   Clear
1:35 PM 19.8 °F 9.9 °F 3.0 °F 48% 30.80 in 10.0 mi North 8.1 mph - N/A   Clear
1:55 PM 20.5 °F 9.2 °F 3.9 °F 49% 30.79 in 10.0 mi NNW 10.4 mph - N/A   Clear
2:15 PM 20.1 °F 10.3 °F 3.2 °F 48% 30.79 in 10.0 mi NNW 8.1 mph - N/A   Clear
2:35 PM 20.1 °F 10.3 °F 3.2 °F 48% 30.79 in 10.0 mi North 8.1 mph - N/A   Clear
2:55 PM 20.1 °F 10.3 °F 2.5 °F 46% 30.79 in 10.0 mi North 8.1 mph - N/A   Clear
3:15 PM 20.3 °F 11.5 °F 2.5 °F 46% 30.79 in 10.0 mi North 6.9 mph - N/A   Clear
3:35 PM 19.8 °F 10.8 °F 2.3 °F 47% 30.78 in 10.0 mi NNE 6.9 mph - N/A   Clear
3:55 PM 19.8 °F 9.9 °F 2.7 °F 48% 30.79 in 10.0 mi NNE 8.1 mph - N/A   Clear
4:15 PM 19.2 °F 10.2 °F 2.5 °F 48% 30.78 in 10.0 mi North 6.9 mph - N/A   Clear
4:35 PM 18.3 °F 11.5 °F 2.1 °F 49% 30.78 in 10.0 mi North 4.6 mph - N/A   Clear
4:55 PM 17.2 °F 11.9 °F 2.3 °F 52% 30.78 in 7.0 mi NNE 3.5 mph - N/A   Clear
5:15 PM 17.2 °F 11.9 °F 2.1 °F 52% 30.77 in 10.0 mi NNE 3.5 mph - N/A   Clear
5:35 PM 17.2 °F - 2.1 °F 52% 30.77 in 10.0 mi Calm Calm - N/A   Clear
5:55 PM 16.3 °F - 2.3 °F 54% 30.76 in 10.0 mi Calm Calm - N/A   Clear
6:15 PM 15.4 °F - 2.3 °F 56% 30.76 in 10.0 mi Calm Calm - N/A   Clear
6:35 PM 13.8 °F - 2.1 °F 60% 30.76 in 10.0 mi Calm Calm - N/A   Clear
6:55 PM 15.4 °F - 2.3 °F 56% 30.76 in 10.0 mi Calm Calm - N/A   Clear
7:15 PM 14.5 °F - 2.3 °F 58% 30.75 in 10.0 mi Calm Calm - N/A   Clear
7:35 PM 13.6 °F - 2.3 °F 61% 30.75 in 10.0 mi Calm Calm - N/A   Clear
7:55 PM 14.0 °F - 2.8 °F 61% 30.74 in 10.0 mi Calm Calm - N/A   Clear
8:15 PM 14.9 °F - 2.1 °F 57% 30.75 in 10.0 mi Calm Calm - N/A   Clear
8:35 PM 13.3 °F - 2.3 °F 62% 30.74 in 10.0 mi Calm Calm - N/A   Clear
8:55 PM 14.2 °F - 2.1 °F 59% 30.74 in 10.0 mi Calm Calm - N/A   Clear
9:15 PM 11.1 °F - 2.3 °F 68% 30.73 in 10.0 mi Calm Calm - N/A   Clear
9:35 PM 11.8 °F - 2.1 °F 65% 30.73 in 10.0 mi Calm Calm - N/A   Clear
9:55 PM 10.9 °F - 2.5 °F 69% 30.73 in 10.0 mi Calm Calm - N/A   Clear
10:15 PM 12.4 °F - 2.5 °F 65% 30.72 in 10.0 mi Calm Calm - N/A   Clear
10:35 PM 11.8 °F 5.7 °F 2.3 °F 66% 30.72 in 10.0 mi SSE 3.5 mph - N/A   Clear
10:55 PM 11.1 °F 4.9 °F 2.5 °F 68% 30.72 in 10.0 mi SSE 3.5 mph - N/A   Clear
11:15 PM 11.3 °F - 3.2 °F 70% 30.72 in 10.0 mi Calm Calm - N/A   Clear
11:35 PM 11.7 °F 5.5 °F 3.6 °F 70% 30.72 in 10.0 mi SSE 3.5 mph - N/A   Clear
11:55 PM 10.4 °F 2.2 °F 3.6 °F 74% 30.72 in 10.0 mi SSE 4.6 mph - N/A   Clear